[Iaude] MPEC J237: 2024 JJ8 [a=1.34,e=0.15,i=9.7,H=24.4]

mpec at cfa.harvard.edu mpec at cfa.harvard.edu
Thu May 9 19:58:23 EDT 2024


M.P.E.C. 2024-J237                                  Issued 2024 May 9, 23:56 UT

     The Minor Planet Electronic Circulars contain information on unusual
         minor planets, routine data on comets and natural satellites,
         and occasional editorial announcements.  They are published
    on behalf of Division F of the International Astronomical Union by the
          Minor Planet Center, Smithsonian Astrophysical Observatory,
                          Cambridge, MA 02138, U.S.A.
			  
             Prepared using the Tamkin Foundation Computer Network

                              MPC at CFA.HARVARD.EDU
            URL https://www.minorplanetcenter.net/    ISSN 1523-6714

                                    2024 JJ8                                    


Observations:
     K24J08J* C2024 05 08.49408814 57 20.346+16 53 28.72         22.05wXEJ237F52
     K24J08J  C2024 05 08.50726714 57 19.180+16 52 42.93         21.98wXEJ237F52
     K24J08J  C2024 05 08.52044114 57 18.062+16 51 56.91         21.48wXEJ237F52
     K24J08J  C2024 05 08.58594814 57 12.616+16 48 06.83         21.86GVEJ237F51
     K24J08J  C2024 05 08.58659514 57 12.542+16 48 04.41         21.84GVEJ237F51
     K24J08J KC2024 05 09.18510614 56 38.080+16 13 14.95         22.05GVEJ237V06
     K24J08J KC2024 05 09.18749214 56 37.885+16 13 06.78         21.71GVEJ237V06
     K24J08J KC2024 05 09.18987914 56 37.676+16 12 58.25         21.61GVEJ237V06
     K24J08J KC2024 05 09.19232314 56 37.482+16 12 50.04         21.62GVEJ237V06
     K24J08J 1C2024 05 09.96461 14 55 44.19 +15 27 00.7          21.9 VXEJ237033
     K24J08J 1C2024 05 09.97266 14 55 43.54 +15 26 31.2          22.1 VXEJ237033

Observer details:
033 Karl Schwarzschild Observatory, Tautenburg.  Observers S. Melnikov, C.
    Hogner, F. Ludwig, M. Hartmann, B. Stecklum.  Measurer B. Stecklum.
    1.34-m f/3 Schmidt + CCD.
F51 Pan-STARRS 1, Haleakala.  Observers J. Herman, T. Lowe, P. Minguez, A.
    Schultz, I. Smith.  Measurers K. Chambers, T. de Boer, J. Fairlamb, H.
    Gao, M. Huber, C.-C. Lin, E. Magnier, Y. Ramanjooloo, R. Wainscoat, R.
    Weryk.  1.8-m Ritchey-Chretien + CCD.
F52 Pan-STARRS 2, Haleakala.  Observers J. Herman, T. Lowe, P. Minguez, A.
    Schultz, I. Smith.  Measurers K. Chambers, T. de Boer, J. Fairlamb, H.
    Gao, M. Huber, C.-C. Lin, E. Magnier, Y. Ramanjooloo, R. Wainscoat, R.
    Weryk.  1.8-m Ritchey-Chretien + CCD.
V06 Catalina Sky Survey-Kuiper.  Observer H. Groeller.  Measurers T. Beuden,
    V. F. Carvajal, D. Fay, J. B. Fazekas, D. C. Fuls, A. R. Gibbs, A. D.
    Grauer, H. Groeller, J. K. Hogan, R. A. Kowalski, S. M. Larson, G. J.
    Leonard, D. Rankin, R. L. Seaman, F. C. Shelly, K. W. Wierzchos.  1.55-m
    reflector + 1K CCD.

Orbital elements:
2024 JJ8                                                 Earth MOID = 0.1459 AU
Epoch 2024 Mar. 31.0 TT = JDT 2460400.5                 MPC                     
M 345.91537              (2000.0)            P               Q                  
n   0.63346065     Peri.  140.37283     -0.83780985     +0.52214371             
a   1.3427329      Node    71.80376     -0.53377630     -0.72199519             
e   0.1540665      Incl.    9.66558     -0.11470628     -0.45397014             
P   1.56           H   24.47          G   0.15           U   8                  
Residuals in seconds of arc
240508 F52  0.0   0.1-    240508 F51  0.2-  0.0     240509 V06  0.0   0.0
240508 F52  0.1-  0.0     240509 V06  0.0   0.0     240509 033  0.0   0.3+
240508 F52  0.2+  0.0     240509 V06  0.1+  0.1+    240509 033  0.1+  0.3-
240508 F51  0.1+  0.1+    240509 V06  0.1-  0.2-

Ephemeris:
2024 JJ8                 a,e,i = 1.34, 0.15, 10                  q = 1.1359
Date    TT    R. A. (2000) Decl.     Delta      r    Elong.  Phase     V
2024 04 09    15 17 54.3 +32 39 19   0.1987  1.1389   129.8    42.5    22.9
...
2024 04 24    15 11 59.7 +27 39 21   0.1710  1.1359   136.5    37.5    22.4
...
2024 05 02    15 04 29.8 +22 29 43   0.1601  1.1375   141.6    33.4    22.2
...
2024 05 08    14 57 54.9 +17 21 44   0.1547  1.1402   145.6    30.0    22.0
2024 05 09    14 56 48.2 +16 24 24   0.1541  1.1408   146.2    29.5    22.0
2024 05 10    14 55 42.0 +15 25 30   0.1535  1.1414   146.8    29.0    22.0
...
2024 05 16    14 49 28.5 +09 04 02   0.1525  1.1457   150.0    26.2    21.9
...
2024 05 24    14 43 07.3 -00 06 19   0.1573  1.1532   151.5    24.8    21.9
...
2024 06 08    14 40 25.0 -16 04 55   0.1857  1.1725   145.3    29.5    22.4

A. U. Tomatic                (C) Copyright 2024 MPC           M.P.E.C. 2024-J237





More information about the Iaude mailing list